Location: Buckland
(65.9785°N, 161.1281°W)
Time: 13:08:28
(UTC+00:00)

PRISM - Pass Details

Date: 17 January 2021
Orbit: 565 x 584 km, 98.2° (Epoch: 04 March)

Event Time Altitude Azimuth Distance (km) Brightness Sun altitude
Rises 14:29:00 0° 20° (NNE) 2,784 ? -33.2°
Reaches altitude 10° 14:31:09 10° 19° (NNE) 1,884 ? -33.0°
Enters shadow 14:31:39 13° 19° (NNE) 1,674 ? -33.0°
